GFSFLT2_500_spd_000.txt.gz
Wind_Speed
63 59 59 61 58 58 56 52 50 49 47 51 53 46 48 46 46 48 47 50 52 50 48 47 48 49 51
65 57 55 54 53 54 53 55 50 49 47 50 49 46 44 45 46 49 48 50 52 57 53 50 50 51 52
70 62 58 56 55 52 50 51 50 46 51 55 50 47 44 44 44 48 49 63 53 61 59 54 52 53 53
67 63 59 54 54 52 51 50 47 51 53 53 51 50 44 41 48 54 45 48 57 53 64 59 57 59 55
65 62 60 57 56 53 52 52 51 57 54 51 56 56 61 51 58 50 51 47 60 59 56 57 55 55 56
64 62 59 57 55 56 54 51 52 54 47 47 49 48 37 44 41 47 51 48 57 61 56 55 53 53 58
67 63 62 58 57 57 56 54 51 51 58 42 48 44 43 47 51 59 58 55 50 56 58 60 56 55 58
71 66 63 60 59 58 56 54 51 51 44 51 49 46 46 45 51 54 51 46 52 59 58 55 52 53 53
64 63 59 57 56 55 52 50 46 46 45 42 45 51 43 48 45 45 43 43 48 51 50 51 53 56 54
50 49 50 50 49 48 43 41 38 38 40 39 38 46 44 42 40 38 39 43 50 50 49 53 57 54 52
42 43 45 45 44 36 37 36 34 37 39 40 35 39 39 32 36 34 38 43 48 50 50 54 53 51 52
37 35 32 33 32 31 27 29 36 39 37 35 34 33 38 33 35 37 36 38 40 44 48 49 49 50 46
26 24 24 22 28 28 22 27 34 36 35 34 32 34 33 33 34 36 35 38 41 45 46 47 49 45 40
22 21 21 21 28 24 22 23 28 33 28 31 26 21 23 27 30 33 40 42 45 45 47 48 46 42 39
19 21 16 20 26 20 18 16 18 23 29 25 20 21 26 30 33 37 41 44 45 47 47 43 41 36 30
17 15 18 23 21 19 10 15 12 12 12 15 17 20 24 28 33 40 42 43 45 44 41 37 30 26 30
10 13 19 16 15 15 13 19 14 12 13 16 18 22 27 33 37 39 41 40 38 35 30 32 36 37 36

GFSFLT2_500_spd_003.txt.gz
Wind_Speed
70 66 64 62 59 58 57 58 60 57 58 59 56 54 51 51 51 59 58 49 49 47 51 48 52 51 49
64 65 64 59 58 57 55 56 57 57 57 56 57 54 52 58 59 52 49 46 46 47 49 51 47 46 51
71 64 62 61 59 58 55 53 52 52 57 55 57 57 54 59 61 55 52 49 46 56 52 48 50 65 58
70 65 61 58 61 57 56 55 53 54 54 53 55 56 60 57 47 52 50 52 46 48 52 54 61 60 64
71 66 60 56 55 54 55 54 51 51 53 52 55 55 56 60 59 57 57 53 54 56 55 52 55 56 64
74 69 62 58 55 55 56 55 52 53 55 52 57 58 60 58 50 53 59 56 60 61 56 49 52 57 57
76 70 65 61 60 58 58 59 57 54 54 51 54 59 61 50 53 44 40 57 60 53 50 58 55 58 61
66 63 60 57 57 56 55 55 53 50 51 49 47 50 53 43 56 44 41 50 54 53 52 60 58 58 61
51 51 49 46 47 51 50 52 48 48 48 46 43 45 47 35 38 40 49 39 38 47 50 51 52 50 52
40 39 38 38 40 44 44 44 44 43 33 29 31 37 39 44 37 38 41 50 44 46 44 42 45 48 45
29 30 32 34 35 39 42 40 32 30 28 26 25 29 30 41 35 37 35 42 43 41 39 38 40 42 43
21 21 24 26 29 32 30 29 27 25 23 27 27 26 27 32 36 34 34 36 34 31 33 35 40 43 44
15 15 17 22 25 27 27 23 16 20 23 22 22 23 29 32 35 32 34 37 34 33 32 37 40 43 45
11 13 18 22 23 22 19 13 16 24 21 22 27 26 28 29 30 32 31 30 31 34 37 40 43 44 43
12 13 18 19 13 8 10 16 20 19 19 23 26 26 26 26 24 24 25 28 32 38 42 43 44 44 42
12 11 14 15 6 2 9 14 12 11 14 20 23 22 19 17 19 23 29 34 37 41 44 45 43 39 34
11 8 9 8 9 10 12 11 11 15 18 18 17 17 19 20 24 27 32 35 39 41 41 38 33 29 30

GFSFLT2_500_spd_006.txt.gz
Wind_Speed
63 63 65 67 65 64 64 66 68 68 69 69 66 66 67 68 66 60 59 55 56 59 57 60 58 54 51
60 60 61 64 67 67 66 65 62 63 66 65 66 63 61 65 66 68 57 60 51 54 55 60 59 56 52
74 70 69 68 67 65 65 63 65 63 62 62 62 61 63 60 61 62 60 59 56 62 59 57 56 51 52
85 83 82 78 77 74 66 64 63 62 61 64 65 62 62 62 61 62 62 62 64 69 58 64 57 53 52
93 92 89 84 80 78 76 65 58 61 63 63 65 63 65 64 64 61 63 59 63 64 57 57 53 52 60
95 89 81 76 72 70 69 67 58 57 57 58 59 64 58 59 62 60 61 59 60 55 58 55 51 42 55
80 73 66 61 60 58 58 59 58 54 59 52 53 51 55 58 61 61 62 61 61 54 55 57 60 55 54
59 59 56 50 46 45 45 49 53 53 58 54 54 55 57 58 59 61 62 61 58 49 55 49 54 59 54
45 45 47 40 35 35 36 41 46 48 51 54 52 55 56 55 58 59 57 54 46 41 45 42 44 56 59
33 35 36 29 26 29 30 33 36 37 41 47 46 49 49 49 51 52 51 47 48 34 43 41 41 37 47
22 24 24 19 18 21 26 31 28 27 30 37 39 38 38 36 38 43 45 43 44 35 34 38 45 37 38
13 13 11 13 17 19 22 25 27 22 20 22 24 31 32 26 30 36 35 44 39 33 36 40 41 41 41
6 8 10 11 15 19 23 24 20 13 12 14 17 30 26 28 32 29 30 33 32 31 36 39 40 38 35
2 4 6 10 17 18 15 13 11 11 9 8 11 17 29 27 25 25 32 32 31 32 35 34 33 32 33
1 2 7 13 13 10 9 8 8 9 12 13 16 17 18 19 22 23 25 26 29 30 29 29 31 32 34
6 7 6 10 10 8 5 4 8 8 2 5 12 17 18 18 16 20 24 26 28 27 27 29 32 37 41
18 14 1 12 8 5 1 6 6 2 3 6 11 14 16 18 18 18 18 19 22 26 31 35 36 35 34

GFSFLT2_500_spd_009.txt.gz
Wind_Speed
68 63 60 59 56 56 56 54 54 60 66 68 68 69 74 85 84 77 78 76 80 81 73 61 61 66 64
73 69 68 66 65 63 62 61 59 58 58 62 67 70 71 67 77 85 80 77 69 67 65 53 68 59 56
84 77 76 75 74 73 72 71 68 67 66 64 62 66 66 69 64 69 72 73 74 73 80 71 49 52 65
92 89 86 82 83 81 79 80 80 79 79 74 69 67 66 66 68 63 63 61 67 69 75 68 68 54 49
86 91 91 91 89 89 90 89 89 89 81 75 72 70 67 62 63 64 65 54 62 71 68 65 58 61 58
72 73 71 74 78 83 85 81 76 70 67 62 64 64 67 62 60 60 63 59 53 63 67 63 56 57 60
56 51 52 52 53 55 58 58 57 54 53 52 54 57 63 62 58 57 63 60 67 61 61 59 52 51 47
48 45 43 41 42 40 39 40 41 39 42 40 46 52 59 60 57 55 59 61 64 63 62 54 51 47 47
42 41 41 36 35 30 27 29 24 28 34 34 38 48 54 56 54 52 49 47 50 50 51 50 48 43 40
36 37 36 31 24 20 18 17 15 18 25 27 31 40 47 51 51 51 48 46 44 44 47 43 40 35 39
28 26 27 22 14 11 8 16 16 16 25 27 28 35 43 45 49 49 47 45 46 46 44 39 35 36 39
25 20 14 7 5 8 15 18 14 13 16 17 21 29 37 41 42 44 44 45 47 47 46 44 44 45 43
13 5 6 8 12 13 12 15 15 10 7 12 19 27 33 36 37 38 40 38 40 42 44 46 46 43 42
5 6 6 8 10 12 14 13 8 5 5 11 16 22 25 26 28 30 29 32 34 39 43 41 45 40 40
8 6 9 10 14 11 6 6 2 1 4 7 7 15 22 25 23 25 26 32 34 37 37 37 38 35 37
18 14 8 11 7 2 4 3 4 7 5 3 8 14 20 24 29 28 28 29 31 33 33 33 33 34 34
22 8 2 2 5 7 6 6 4 4 10 12 11 14 16 18 19 21 25 27 24 24 25 27 29 30 31

GFSFLT2_500_spd_012.txt.gz
Wind_Speed
86 78 82 87 87 85 78 74 70 69 69 68 66 66 66 71 72 83 90 93 93 100 88 92 80 73 74
76 70 66 67 75 87 87 81 76 71 71 69 66 62 61 60 61 65 68 71 75 92 89 98 92 88 83
70 67 65 64 68 70 72 83 85 77 74 73 72 68 65 63 60 59 59 63 69 65 88 88 89 84 91
70 66 65 62 66 67 67 68 75 84 80 78 76 76 72 68 64 61 62 63 61 64 61 70 79 84 84
66 65 62 61 59 58 58 56 60 68 80 84 81 80 77 76 73 71 70 68 67 60 65 58 68 72 74
63 62 57 56 54 52 51 47 45 43 60 70 80 83 81 82 82 83 79 71 70 62 56 65 58 66 68
62 58 56 53 53 48 43 41 34 30 40 46 54 63 68 68 66 63 62 63 66 61 53 54 55 55 60
60 58 55 51 50 45 37 29 23 22 25 22 33 37 41 43 46 48 51 56 58 54 50 45 51 46 48
54 51 51 47 44 36 27 15 4 5 12 17 18 20 26 30 34 39 42 47 49 48 43 40 46 50 45
41 43 44 40 37 30 19 4 6 3 9 9 5 11 15 18 24 31 36 40 43 40 36 38 41 43 44
37 34 31 28 24 19 11 7 5 7 9 12 10 10 13 20 21 24 28 35 36 35 31 31 36 38 38
24 20 16 14 13 14 14 15 14 7 9 12 17 18 15 19 22 22 26 30 31 29 28 26 27 30 31
15 15 15 13 14 15 15 16 16 11 5 7 9 13 15 20 23 23 25 28 28 29 28 28 29 30 30
13 14 15 16 18 18 17 15 12 7 3 2 9 14 16 18 20 23 25 26 28 29 30 31 31 31 32
24 23 17 17 17 14 9 7 6 7 6 5 7 12 9 13 18 20 22 24 26 28 30 32 33 34 38
22 12 12 11 10 8 8 9 9 5 2 1 6 11 11 16 17 19 21 23 25 28 30 32 34 35 36
12 13 12 10 9 11 11 10 10 11 14 12 12 12 15 17 18 17 19 21 22 29 29 31 31 31 36

GFSFLT2_500_spd_015.txt.gz
Wind_Speed
89 82 79 78 74 72 69 68 68 65 66 69 72 78 75 72 71 71 69 70 80 93 90 98 105 98 87
85 82 74 68 66 66 67 68 67 64 66 70 71 71 79 75 72 70 70 68 69 74 88 97 93 104 93
83 75 69 64 62 63 65 62 63 65 68 70 70 71 72 79 75 72 71 71 68 67 70 78 85 85 99
76 72 67 60 60 59 56 58 58 61 63 60 60 60 68 76 77 74 72 71 68 64 61 57 60 64 60
70 66 61 56 56 58 62 54 51 56 56 50 51 50 54 65 78 76 74 71 67 63 59 55 52 51 50
63 62 57 56 57 59 55 52 42 41 46 40 44 38 42 55 71 76 75 73 70 66 62 59 53 49 48
62 58 58 57 58 51 47 44 36 29 33 25 27 25 29 41 55 75 73 73 71 69 67 63 57 52 48
55 52 56 56 51 47 40 32 24 20 15 9 14 15 23 31 42 58 70 69 70 71 69 67 64 56 53
49 51 52 51 48 38 28 20 5 6 14 13 13 14 15 16 21 32 46 55 58 60 61 61 59 56 53
44 44 44 37 31 26 17 9 4 5 14 7 5 10 8 3 6 13 21 27 31 35 40 45 48 49 46
31 25 22 21 22 22 19 13 7 8 13 10 6 5 2 5 5 5 12 13 18 23 30 36 39 40 41
20 22 23 24 24 22 21 19 16 12 7 9 6 9 5 9 6 6 13 18 22 25 29 31 33 36 37
23 26 28 27 27 26 22 19 15 7 6 6 5 6 12 11 16 14 17 23 26 26 26 27 29 32 33
30 28 23 20 19 15 14 11 8 7 4 2 3 6 8 12 12 16 20 23 24 24 22 24 30 31 35
23 17 15 14 13 13 13 13 13 12 10 6 5 3 6 7 10 15 20 23 24 24 23 22 28 29 35
14 13 13 13 14 13 12 13 14 14 10 6 4 10 8 7 11 17 21 23 24 28 26 26 28 28 31
16 16 15 14 14 15 14 14 17 20 18 10 10 9 10 9 12 16 19 19 21 22 22 30 35 32 33

GFSFLT2_500_spd_018.txt.gz
Wind_Speed
97 91 85 82 80 83 85 81 75 70 68 66 64 63 64 64 64 62 62 68 78 76 76 83 86 93 111
90 86 83 80 80 76 72 69 66 63 63 61 57 60 62 63 63 61 60 60 74 79 77 78 78 76 86
86 81 81 78 70 66 62 58 57 58 59 58 61 63 60 59 61 62 65 66 68 81 78 76 72 65 69
84 82 74 64 63 63 57 52 51 56 56 57 58 57 58 60 61 62 63 65 70 77 79 74 68 62 63
81 73 66 65 65 63 55 48 46 51 49 48 55 54 52 54 55 54 56 58 65 73 80 73 67 62 60
69 69 66 62 57 54 53 48 40 42 47 40 44 37 37 39 41 43 46 47 56 68 77 72 66 64 61
63 62 59 56 56 50 44 41 34 32 32 21 22 18 24 24 26 29 33 33 46 62 75 69 64 62 59
60 60 58 52 45 37 31 23 22 21 15 6 17 18 22 25 32 32 23 22 34 57 70 65 62 57 53
53 50 42 35 32 24 22 19 15 10 16 11 14 13 17 22 23 17 14 17 26 48 62 58 56 53 51
35 30 30 32 33 31 24 16 15 13 22 23 16 17 11 16 11 10 5 5 15 38 53 51 54 55 52
27 30 32 36 38 38 35 25 15 12 19 18 13 18 9 7 12 10 10 12 11 25 47 49 54 56 55
31 35 38 38 35 28 25 20 15 10 11 15 13 10 4 2 6 7 20 16 15 13 14 35 47 52 57
34 29 26 20 17 18 19 17 15 10 12 12 10 7 7 3 2 5 12 18 20 18 21 20 24 31 42
21 18 16 18 19 20 20 18 18 17 13 8 9 6 3 3 5 6 13 15 19 24 27 30 30 32 36
18 18 19 20 19 17 15 17 17 16 14 7 7 8 8 11 14 16 19 22 25 28 29 31 29 29 33
18 18 18 16 16 15 17 19 19 19 17 14 10 14 16 17 19 21 23 25 27 25 19 25 26 29 23
17 17 17 17 16 15 16 19 21 23 17 14 15 9 14 17 20 22 24 25 26 22 22 30 28 26 18

GFSFLT2_500_spd_021.txt.gz
Wind_Speed
102 96 92 90 84 81 83 85 85 80 76 71 67 66 65 64 63 63 65 66 67 68 69 72 77 82 88
90 86 82 75 73 72 77 78 75 70 70 67 66 63 60 59 60 61 61 62 63 65 66 67 67 73 85
84 78 74 74 74 74 66 64 66 66 65 64 63 59 58 58 60 59 59 60 61 62 64 66 67 68 75
79 77 76 76 72 63 58 59 57 55 54 54 55 55 57 57 54 53 54 56 58 61 63 64 64 63 65
80 79 75 62 58 60 57 51 48 52 53 51 50 50 48 48 45 44 45 47 53 59 63 65 68 67 63
80 68 55 54 56 46 40 39 32 37 39 33 39 34 33 30 29 30 30 33 38 47 54 61 66 69 68
56 50 51 50 36 27 27 30 32 29 32 23 27 15 20 22 27 32 38 39 32 31 40 50 59 66 69
47 48 42 32 30 32 30 26 25 30 32 17 19 16 19 22 25 36 35 30 29 31 31 38 47 56 65
41 34 32 36 40 39 40 26 21 23 32 28 22 18 19 22 28 27 27 20 20 20 23 23 32 48 60
25 32 38 42 45 41 32 22 20 18 32 28 22 24 15 22 20 18 13 19 13 8 12 17 31 47 60
30 35 36 33 29 29 28 25 19 18 23 22 24 21 18 8 9 9 13 22 27 14 2 14 34 50 51
27 25 24 23 24 25 26 27 25 22 18 19 19 17 9 3 6 9 17 21 19 17 13 14 34 40 42
23 22 22 22 22 23 23 24 25 23 18 14 12 12 5 2 4 5 11 20 9 19 19 15 30 34 39
20 21 21 20 20 20 21 23 25 24 16 10 9 9 8 4 6 10 8 9 6 6 12 11 30 32 38
20 20 19 20 20 20 22 23 24 20 14 13 12 11 11 13 13 14 8 14 13 21 18 14 19 29 38
18 17 17 18 20 21 20 22 25 20 15 13 15 13 13 15 16 18 26 24 20 22 19 25 18 23 26
17 16 16 16 16 17 18 20 22 22 16 11 13 11 12 14 17 21 26 21 20 18 16 17 13 18 22

GFSFLT2_500_spd_024.txt.gz
Wind_Speed
118 116 109 104 97 94 91 90 87 83 81 83 81 79 75 75 76 76 75 73 72 72 75 77 78 80 82
109 98 90 83 81 78 77 80 84 83 78 72 69 69 70 72 71 68 69 70 69 66 65 67 69 71 73
94 85 80 79 77 77 76 74 72 66 62 66 69 68 67 66 63 60 58 56 57 57 58 59 62 64 67
89 85 83 81 81 75 62 51 50 56 55 54 52 52 53 54 52 50 49 49 50 53 57 59 62 63 64
88 83 75 68 57 46 43 43 37 39 41 41 41 41 41 41 37 33 32 33 35 40 47 54 59 60 62
69 58 48 45 45 40 30 25 25 35 42 38 45 39 40 32 23 19 18 19 24 30 31 33 45 55 61
46 44 44 38 29 29 32 35 34 36 46 39 41 36 34 27 25 23 22 26 31 37 38 35 38 45 54
44 40 32 34 39 37 32 23 24 29 28 25 33 31 31 28 30 28 26 31 37 44 43 35 32 44 49
33 34 39 42 38 30 26 23 20 25 31 27 26 22 20 23 25 19 22 17 18 18 22 31 36 33 44
33 36 34 30 30 31 32 29 27 25 30 27 27 23 20 18 11 12 11 15 25 23 25 22 22 29 35
25 24 25 28 28 27 28 28 26 26 27 23 20 18 14 6 4 2 12 19 21 20 20 23 15 16 25
21 24 23 23 24 25 26 30 33 31 24 18 13 12 5 2 4 4 12 17 17 21 24 12 2 9 22
22 21 21 21 22 25 28 29 34 28 21 17 11 10 3 3 5 5 14 11 14 14 19 12 21 28 36
21 21 21 21 21 23 24 24 26 22 19 18 9 9 6 5 2 2 11 6 9 15 17 16 23 30 36
21 21 20 21 22 22 23 24 24 17 16 18 12 11 11 10 14 16 13 19 20 18 14 19 21 24 32
23 21 19 19 20 21 21 22 23 16 11 14 14 13 16 22 21 21 22 15 14 18 19 17 23 25 28
21 21 21 18 17 18 19 19 21 17 12 8 11 11 15 19 20 19 14 15 20 19 22 19 15 26 30

GFSFLT2_500_spd_027.txt.gz
Wind_Speed
119 123 127 126 119 112 105 99 95 90 86 84 81 80 79 77 76 76 75 74 75 75 76 77 77 78 80
125 119 110 100 94 91 89 89 89 85 79 75 72 69 66 62 60 63 66 67 69 70 70 71 69 69 76
110 98 92 86 81 76 69 63 61 59 53 52 54 52 52 50 49 50 53 57 60 61 62 61 61 60 64
93 86 77 67 58 50 40 43 44 47 46 46 42 41 44 45 41 41 41 44 45 45 48 51 54 55 56
75 64 55 48 47 42 34 29 30 35 38 39 45 47 49 52 49 40 38 33 32 32 33 35 38 44 50
58 52 47 43 34 37 40 37 30 40 42 40 45 44 45 42 38 35 32 27 24 21 22 25 28 32 37
46 42 34 41 42 36 29 27 28 31 32 29 35 31 32 30 29 28 27 20 19 22 28 31 37 41 44
39 38 41 37 32 31 29 26 27 32 33 27 34 32 31 28 30 25 20 14 15 17 23 27 28 33 40
41 39 35 33 33 28 24 24 25 33 37 33 34 26 25 23 28 18 8 5 11 19 26 29 35 38 32
30 30 30 30 31 32 32 30 30 31 34 30 28 21 16 21 13 2 6 14 21 25 30 27 31 33 35
25 25 27 28 30 31 33 35 33 31 31 27 22 16 17 11 8 6 15 18 23 28 35 32 28 32 36
24 25 26 27 28 30 31 34 37 30 27 28 20 18 10 10 8 10 19 18 19 22 28 27 22 32 33
25 27 26 25 25 27 29 30 34 26 28 27 22 15 8 11 9 13 20 21 25 26 20 20 20 21 16
27 27 26 27 25 24 25 25 28 24 23 25 18 16 14 15 12 13 18 15 15 19 13 19 23 18 22
28 28 28 26 24 23 23 24 25 19 18 20 16 17 15 14 14 19 22 19 19 20 13 16 20 28 37
28 27 26 24 23 22 21 19 21 18 17 14 12 13 14 13 14 15 16 21 22 21 11 16 18 26 33
26 26 24 24 22 19 17 16 17 18 14 9 7 8 9 11 16 20 18 21 16 19 13 16 20 23 31

GFSFLT2_500_spd_030.txt.gz
Wind_Speed
107 113 119 126 124 116 108 102 95 85 75 71 70 68 67 66 65 67 70 73 75 77 78 78 79 79 80
113 119 118 107 98 93 82 71 62 57 55 56 54 53 50 48 46 44 44 46 50 55 60 63 68 73 76
118 107 95 87 71 58 52 51 51 48 46 45 46 45 42 40 37 35 36 36 38 39 46 51 56 62 66
99 87 73 55 47 42 37 41 46 50 50 49 47 44 44 40 38 38 36 35 35 36 41 45 46 49 52
77 59 50 42 38 42 40 35 35 38 37 37 38 38 38 36 32 27 28 30 33 34 35 33 32 34 38
51 46 38 44 39 31 30 31 28 38 36 29 38 37 39 38 38 35 30 31 28 28 28 25 22 23 25
40 40 42 36 33 29 28 29 32 36 35 29 39 37 36 35 33 27 24 28 24 24 21 21 25 31 34
43 41 34 33 34 32 28 25 29 36 40 34 37 32 29 28 22 20 26 24 20 15 12 16 21 26 29
39 35 34 34 35 30 29 29 28 34 39 34 37 28 26 20 21 20 13 7 10 14 19 22 30 35 33
33 33 33 34 34 35 34 33 34 33 34 33 28 25 24 17 15 12 11 13 19 22 24 30 33 36 31
32 30 30 32 33 35 34 36 33 35 34 30 26 24 17 17 20 13 16 24 28 26 31 34 34 38 37
31 32 30 30 30 33 32 33 33 34 30 27 23 19 17 18 17 17 25 28 32 28 24 26 31 37 38
32 31 31 31 28 27 30 29 31 31 27 22 18 18 17 18 19 19 24 25 27 17 19 24 27 33 38
27 30 30 32 31 27 24 22 23 27 23 16 12 14 14 16 22 27 28 30 22 16 20 22 27 27 24
32 32 31 32 32 29 24 23 18 18 19 13 8 11 12 18 24 27 30 23 24 15 20 21 23 21 25
33 31 28 26 27 28 24 19 16 15 14 12 5 7 13 18 18 24 28 20 20 13 19 19 23 28 31
30 26 24 25 25 24 23 20 14 10 9 11 5 3 9 13 16 24 26 19 19 13 18 19 22 21 29

GFSFLT2_500_spd_033.txt.gz
Wind_Speed
95 101 108 114 116 116 106 96 86 76 67 62 60 56 52 50 48 47 46 48 52 53 55 64 75 83 85
102 108 112 111 103 88 77 65 60 54 53 54 54 51 45 41 42 40 40 42 41 40 43 46 49 56 70
109 111 101 87 73 57 50 47 50 53 50 42 40 40 41 42 39 38 37 36 37 38 38 37 36 41 46
108 90 74 53 46 42 44 47 41 41 44 39 39 41 43 43 41 39 40 39 35 30 34 40 41 40 41
83 67 49 40 42 44 35 34 36 41 37 36 37 41 44 45 45 43 39 36 34 36 35 36 40 46 45
61 47 39 45 38 32 30 32 28 37 34 34 40 36 38 39 37 31 29 30 30 32 35 37 35 37 42
45 40 44 38 32 27 29 26 29 34 32 29 39 34 37 32 29 26 23 22 25 29 29 26 26 28 29
41 42 38 34 28 29 28 24 26 32 33 31 34 35 34 30 27 24 21 17 15 14 14 14 15 16 19
39 37 36 33 32 31 30 28 24 30 33 34 33 31 31 24 22 23 17 14 16 19 24 25 27 28 28
34 34 36 35 37 37 35 31 27 23 31 28 29 26 23 21 18 17 19 23 26 28 26 27 31 35 39
34 33 36 37 35 37 37 36 29 25 29 27 23 24 16 12 18 23 27 31 31 27 28 28 26 30 32
34 35 32 32 33 35 34 34 35 24 24 25 19 14 12 14 17 20 28 34 32 26 28 25 27 31 36
30 30 31 32 31 30 32 31 32 25 19 22 15 13 13 13 17 23 30 27 25 26 20 21 28 33 34
30 31 32 32 31 27 27 27 24 26 18 18 14 11 13 18 20 26 32 27 23 19 21 24 30 36 32
32 31 30 28 26 25 25 25 22 18 22 20 13 10 11 13 18 27 29 21 18 18 22 22 29 31 27
32 28 25 22 23 24 24 23 20 18 17 17 13 10 11 16 17 23 23 16 15 17 23 26 25 32 32
25 20 19 21 20 20 22 23 22 16 15 14 11 9 10 11 16 22 16 13 13 13 19 27 33 38 31

GFSFLT2_500_spd_036.txt.gz
Wind_Speed
82 88 98 106 112 117 120 113 97 82 68 60 53 53 47 41 40 40 42 44 47 50 54 57 60 61 64
89 97 106 112 118 117 99 79 64 51 52 56 48 40 43 44 45 46 48 49 50 49 49 50 52 53 55
98 105 110 114 106 82 65 53 49 52 52 42 42 42 39 40 42 43 44 45 47 50 51 53 53 50 50
110 111 109 89 70 55 43 49 50 44 43 42 38 38 41 41 42 44 44 44 46 47 50 53 53 52 48
112 103 76 58 46 42 46 42 38 40 39 35 38 39 42 42 42 43 44 45 43 42 38 39 43 47 48
90 71 55 41 40 42 37 35 30 37 37 31 38 37 40 39 39 41 40 37 34 32 31 30 32 35 39
66 52 41 40 38 35 33 31 31 33 32 29 38 36 39 34 36 36 30 27 26 23 21 21 22 24 28
50 41 38 39 37 33 30 28 29 32 33 29 37 34 36 32 32 24 20 18 20 23 26 26 27 29 29
42 38 41 37 38 35 36 34 32 31 35 32 35 31 33 29 18 16 20 22 26 30 32 33 35 35 32
39 39 38 42 41 41 40 37 37 29 33 29 32 28 27 22 14 19 24 29 33 34 27 26 27 24 24
36 39 39 38 37 37 38 38 38 35 33 26 28 26 19 17 22 22 27 30 34 28 30 31 26 27 28
36 35 35 37 38 38 39 39 40 35 29 27 25 23 20 19 18 23 25 32 31 26 31 27 28 29 34
37 37 37 36 36 33 35 33 33 34 31 26 23 22 18 15 14 20 24 28 25 25 23 27 26 27 32
38 37 36 35 33 29 26 26 27 30 34 27 22 20 19 16 17 18 26 26 22 18 21 22 25 29 31
38 34 32 29 26 24 23 23 24 24 26 29 24 20 18 13 14 20 25 19 21 14 16 20 25 31 31
29 27 23 21 20 23 21 23 23 24 23 24 22 21 16 14 9 16 26 19 16 13 17 20 27 31 33
24 22 21 22 21 20 19 20 24 25 24 19 17 15 15 10 13 17 21 17 11 12 12 20 24 30 35

GFSFLT2_500_spd_039.txt.gz
Wind_Speed
76 81 85 90 95 102 108 113 118 115 104 88 75 57 51 53 48 39 43 46 48 49 49 50 52 52 52
80 85 92 98 103 111 117 118 104 84 68 57 46 50 48 37 40 43 41 41 44 47 50 52 53 55 56
86 94 100 107 113 118 111 89 71 58 48 50 48 44 37 42 39 38 39 41 44 44 45 46 48 52 55
96 100 108 114 117 103 78 65 50 47 46 44 40 39 40 39 35 35 38 41 39 41 47 51 51 49 48
104 110 116 107 86 70 59 44 44 44 43 40 37 39 40 37 36 37 40 39 40 47 46 42 39 38 37
112 114 92 76 64 52 42 40 35 41 38 36 40 38 39 38 36 38 39 37 40 35 30 28 25 24 26
100 80 68 53 44 36 39 34 37 40 37 32 36 37 38 39 36 37 35 32 24 23 26 27 30 32 32
69 53 44 40 37 39 35 36 36 39 43 33 36 37 37 39 35 33 31 23 22 27 28 32 34 34 35
46 43 42 44 42 41 39 37 34 32 40 38 37 37 37 39 34 30 27 26 27 29 30 33 30 27 31
47 47 44 43 44 43 43 41 39 35 43 39 36 39 30 39 33 30 26 29 28 30 34 36 32 30 24
46 46 46 45 46 45 45 43 40 36 38 36 32 32 33 28 33 32 27 26 28 31 37 32 31 28 26
47 48 48 47 47 45 42 41 40 37 33 33 30 30 30 27 25 29 27 27 28 31 30 27 26 28 31
47 47 46 45 44 41 37 35 32 33 32 31 31 28 27 22 19 24 22 25 27 30 25 23 23 24 27
40 39 38 36 35 32 27 24 25 27 32 32 32 28 23 19 18 17 20 21 26 23 20 20 23 26 31
38 35 34 31 29 27 25 24 24 24 26 30 33 30 21 15 16 15 16 20 23 18 18 16 23 28 32
36 34 32 30 29 28 26 22 22 24 27 27 27 24 20 18 8 11 17 21 19 17 17 16 21 29 33
35 33 31 30 27 24 22 21 24 27 29 26 24 17 14 14 9 9 14 18 17 16 15 15 19 26 30

GFSFLT2_500_spd_042.txt.gz
Wind_Speed
71 72 74 77 81 85 90 96 101 108 113 116 117 109 85 72 56 47 49 49 45 43 44 46 50 51 50
72 75 80 85 88 93 99 106 111 114 114 98 80 67 57 43 44 47 43 38 39 39 42 43 43 44 46
78 82 85 91 97 103 109 112 107 92 79 64 54 44 44 43 42 39 35 36 35 37 38 40 42 43 43
84 89 96 102 108 110 104 86 71 61 53 43 39 41 42 41 36 33 32 32 35 35 37 37 37 40 44
93 98 104 107 106 89 67 53 45 43 37 39 40 37 40 37 36 34 32 34 35 36 36 35 36 31 29
102 106 105 96 72 50 45 43 38 44 43 35 39 37 39 38 39 37 35 36 36 35 34 34 28 26 26
105 100 80 57 47 47 49 48 45 43 43 39 39 36 41 41 43 40 38 37 37 36 34 29 27 29 32
87 64 50 51 52 49 48 46 43 42 44 39 38 35 37 41 43 41 40 39 39 36 33 29 30 31 32
55 53 53 52 51 50 50 49 46 42 47 39 37 36 35 39 44 42 39 39 37 35 33 31 33 32 33
53 53 54 53 54 53 52 50 49 43 48 40 37 38 31 34 40 41 36 36 34 32 32 31 33 33 28
52 52 51 50 48 47 47 46 43 40 42 39 33 32 34 29 29 39 37 32 29 31 30 29 28 31 24
49 48 46 45 44 42 41 38 36 33 29 29 27 28 28 27 27 32 36 30 25 26 24 26 31 28 27
48 46 45 43 40 37 36 33 30 30 28 27 27 27 28 27 23 28 27 28 25 19 23 27 29 27 23
46 45 42 39 38 35 32 30 28 28 32 27 28 30 27 25 20 19 23 20 21 21 24 30 28 24 22
45 43 39 36 36 34 32 29 25 21 22 27 32 32 30 23 13 15 14 13 16 21 25 19 22 23 25
46 43 39 36 34 33 31 29 25 24 24 26 26 24 28 23 9 10 7 12 18 20 17 18 17 21 23
46 42 37 34 32 29 26 25 25 25 27 25 23 22 16 16 12 6 8 15 12 15 12 10 11 17 23

GFSFLT2_500_spd_045.txt.gz
Wind_Speed
68 68 67 67 68 72 77 82 86 92 97 101 106 109 109 104 95 84 68 61 56 51 47 48 50 50 48
67 67 68 72 76 81 86 92 97 102 106 108 105 90 77 66 57 48 43 42 44 45 43 43 42 42 42
67 71 74 78 83 89 95 102 107 108 103 81 63 51 45 42 42 41 40 42 41 40 39 40 40 37 37
72 76 82 87 94 99 103 109 99 81 62 52 49 50 49 48 42 40 39 33 31 33 36 36 36 36 36
79 85 91 96 103 108 104 80 57 54 51 55 53 51 48 46 43 41 36 34 34 32 33 34 33 34 34
89 95 102 108 107 85 64 52 50 55 52 48 51 47 48 46 46 45 40 39 39 38 37 35 35 34 32
99 104 106 93 69 56 56 55 53 54 53 49 52 47 48 46 48 48 44 41 41 43 43 41 38 36 33
103 89 66 58 58 57 57 56 53 53 55 53 52 48 46 44 47 45 43 41 41 42 44 44 42 39 35
69 56 57 59 60 59 57 53 49 47 52 49 47 45 42 38 44 43 42 40 38 38 41 42 42 40 35
53 53 54 56 58 57 54 49 45 41 47 42 40 39 29 28 35 39 41 39 35 34 36 37 37 37 35
47 50 54 56 55 53 49 46 42 40 42 38 30 27 27 22 25 31 38 37 35 33 32 33 32 33 31
48 52 54 55 53 50 45 43 41 37 35 35 27 26 24 23 23 27 34 35 33 31 26 27 27 27 28
51 53 55 54 52 47 43 39 38 37 33 31 24 20 23 25 21 25 30 32 31 22 18 19 21 24 27
51 53 54 53 50 46 40 36 33 33 32 28 23 24 27 29 24 22 23 22 25 17 12 16 20 24 26
53 54 53 51 45 41 36 32 29 25 25 28 28 29 31 31 20 14 17 20 16 15 13 16 23 25 23
53 53 51 46 39 35 31 28 22 21 21 21 22 23 26 32 8 5 11 10 10 14 17 14 19 28 19
50 50 48 41 34 29 24 19 16 17 19 17 16 18 20 18 17 1 6 11 14 15 13 11 10 17 20

GFSFLT2_500_spd_048.txt.gz
Wind_Speed
67 68 67 67 67 67 68 70 73 78 82 87 92 96 100 104 108 110 104 92 80 71 66 65 63 61 59
68 68 67 67 69 70 73 78 83 89 93 98 104 107 110 109 97 82 65 54 52 52 50 50 51 50 46
67 67 68 71 74 77 82 88 94 99 105 111 111 100 86 69 59 52 52 55 56 51 46 46 47 45 44
66 69 72 75 80 85 89 96 103 108 107 98 77 65 61 59 58 57 55 55 52 46 43 42 39 38 37
70 74 79 84 89 94 98 104 101 86 69 61 63 62 63 60 58 55 54 52 49 46 45 44 41 38 37
77 82 87 93 98 101 102 88 62 64 65 63 66 64 63 62 61 60 60 57 51 47 44 46 45 41 37
84 91 94 100 99 83 65 61 61 65 67 64 67 60 58 56 57 58 59 58 54 50 46 46 46 45 43
94 98 96 79 64 57 59 62 64 66 68 64 60 53 50 50 51 53 54 52 50 48 46 44 47 48 46
94 81 63 56 57 60 64 66 65 62 60 59 50 47 43 42 43 46 46 45 45 45 43 41 43 44 46
61 53 52 57 62 66 68 68 66 57 54 49 43 44 34 32 33 37 37 38 37 35 37 37 38 41 42
45 49 56 61 65 68 69 68 61 55 50 45 37 36 33 27 26 34 36 38 36 33 32 31 32 36 36
46 53 58 63 66 67 65 62 55 50 42 39 32 31 26 21 20 27 34 36 38 37 34 33 30 30 32
49 55 60 63 63 61 58 54 44 41 38 32 27 24 22 20 20 27 28 30 38 36 33 27 21 25 25
51 57 59 56 57 58 50 42 34 30 33 28 23 20 21 26 27 25 26 22 29 29 14 12 17 18 18
54 54 50 50 53 48 41 35 26 20 21 25 24 22 23 27 25 16 13 21 19 16 8 8 13 17 20
49 45 41 43 42 37 33 26 17 16 18 18 19 19 23 29 14 10 14 10 9 10 12 12 17 21 15
42 39 36 36 35 33 30 26 21 19 18 16 15 16 14 15 17 8 10 11 15 18 15 11 11 20 15

GFSFLT2_500_spd_051.txt.gz
Wind_Speed
68 65 67 68 68 70 72 73 73 72 74 75 78 81 85 89 91 95 98 101 103 103 101 93 89 85 77
67 67 68 70 71 72 73 73 75 77 81 84 87 91 94 97 100 103 103 93 82 74 68 64 59 56 58
67 69 71 72 72 71 73 76 80 86 90 93 98 102 105 102 97 85 74 66 60 58 58 57 57 60 61
70 71 70 70 72 74 75 82 88 95 99 101 101 96 86 78 70 67 65 64 62 60 58 57 56 55 54
68 68 70 73 76 79 83 89 97 100 96 86 79 70 69 71 72 71 70 69 66 63 60 59 57 55 54
68 72 75 79 84 89 93 98 92 75 69 63 67 68 72 73 73 72 71 69 66 63 59 57 56 55 55
74 78 82 87 91 94 91 80 66 63 68 65 72 73 74 70 65 62 60 59 56 53 53 53 53 52 53
82 85 90 93 89 78 63 58 61 69 76 74 78 72 65 56 55 54 53 51 47 46 46 47 48 48 49
88 90 87 73 61 56 60 65 68 74 76 78 68 60 53 44 45 49 49 45 41 40 39 38 37 40 43
88 76 57 51 56 62 68 73 76 71 68 69 58 51 41 33 36 41 43 42 39 35 30 26 26 29 35
57 42 46 53 60 67 70 68 68 68 59 54 41 34 30 23 26 32 36 39 38 35 34 32 27 25 27
34 41 47 56 62 60 59 61 60 54 44 40 28 22 19 19 20 24 30 31 33 36 37 37 34 27 26
36 43 51 52 51 49 50 49 45 44 38 27 21 19 20 18 16 23 26 29 37 35 37 35 29 22 22
38 45 43 44 43 41 40 40 35 31 34 26 22 21 20 21 19 19 22 18 28 31 22 19 12 16 17
41 40 37 38 38 36 36 36 34 29 27 30 32 29 29 29 21 13 8 17 20 15 12 12 11 10 9
42 35 33 33 34 36 34 33 32 30 26 24 24 22 25 27 19 12 17 18 16 17 15 10 16 19 14
41 35 31 33 33 32 32 30 30 29 27 24 25 23 20 19 26 28 19 14 17 20 21 17 15 21 13

GFSFLT2_500_spd_054.txt.gz
Wind_Speed
63 65 66 68 67 69 69 68 70 73 73 72 72 72 73 75 78 81 84 86 88 91 93 95 96 99 101
64 66 70 69 68 68 69 72 72 72 73 74 75 77 81 84 86 89 92 95 97 99 99 98 97 94 90
70 70 70 69 70 72 73 71 73 75 78 80 83 87 90 93 97 100 100 98 96 92 83 75 71 68 67
69 68 69 72 72 72 71 73 76 81 85 88 91 96 100 101 101 94 87 79 74 71 71 71 71 71 69
67 69 68 69 70 72 75 79 83 87 90 95 96 92 87 81 75 73 75 77 77 77 77 77 76 74 71
66 67 70 73 76 79 81 85 86 91 90 80 75 70 73 75 79 81 82 82 81 78 73 67 62 60 59
70 73 75 78 81 84 88 90 88 80 73 63 72 75 80 81 80 78 75 70 66 61 56 52 48 46 46
77 79 82 85 87 88 84 72 59 61 70 72 76 72 72 68 64 63 60 59 57 52 46 41 38 39 41
85 86 87 86 78 62 52 51 56 63 65 60 58 60 52 43 42 44 47 48 46 40 33 31 31 30 30
87 82 68 51 40 43 49 55 53 47 50 47 50 48 35 26 28 34 38 41 37 32 29 23 21 22 23
59 39 30 35 41 48 49 43 41 41 43 40 40 37 32 26 22 29 33 34 32 30 27 26 26 26 22
19 26 32 40 45 43 41 40 40 39 39 37 34 33 31 26 22 25 30 31 31 31 34 36 37 33 27
24 30 36 41 39 37 39 38 37 36 37 35 31 32 33 30 21 22 23 25 32 32 35 32 23 17 15
30 32 39 37 34 35 36 35 33 36 34 33 33 32 31 28 23 16 23 16 25 28 20 15 15 12 13
31 34 39 35 33 34 34 32 33 32 33 33 34 34 36 37 31 27 17 20 23 20 18 17 21 16 13
33 34 38 36 31 33 33 31 31 32 33 32 32 34 37 37 38 33 29 24 22 23 22 19 22 18 12
33 36 36 38 34 32 32 31 30 32 33 32 33 35 35 30 32 36 28 21 17 18 23 22 21 19 16

GFSFLT2_500_spd_057.txt.gz
Wind_Speed
59 61 63 61 61 65 65 67 73 73 71 71 73 72 71 72 71 71 73 75 77 79 81 84 86 87 88
59 59 55 57 59 64 69 73 72 72 72 71 71 72 73 75 77 78 80 83 86 89 91 93 94 96 98
62 60 62 64 66 68 70 71 71 70 71 73 75 78 80 82 84 86 89 93 96 98 100 102 102 101 98
57 59 64 67 69 69 68 69 70 74 76 78 81 84 88 90 93 96 96 94 90 89 86 83 80 76 73
63 65 66 68 69 70 72 74 77 80 82 86 87 91 93 89 85 82 80 82 84 86 87 85 83 80 79
65 66 69 71 74 77 79 82 82 85 86 86 85 74 67 68 74 75 73 74 78 80 80 79 76 74 72
65 70 73 78 81 85 88 89 87 84 81 64 57 57 60 58 59 61 60 56 52 52 54 54 54 55 54
73 77 80 85 87 83 78 70 59 47 47 43 48 44 47 50 52 52 50 46 41 38 35 32 30 32 34
76 78 78 75 67 54 42 37 37 46 47 37 39 39 42 47 47 49 46 43 40 34 30 25 22 22 25
66 65 52 33 26 30 36 41 43 38 36 36 36 34 35 40 42 44 44 43 42 38 32 25 20 15 16
35 19 23 28 34 40 43 39 34 36 36 30 32 33 31 30 35 37 41 42 38 35 34 31 29 24 23
22 26 29 33 39 41 37 33 35 35 31 28 30 32 31 35 35 37 37 37 34 30 30 28 23 20 18
24 28 32 35 39 39 34 31 36 35 30 30 31 32 34 37 37 39 33 30 33 29 33 27 18 15 14
28 30 33 36 37 38 31 29 32 34 34 35 35 33 34 37 38 36 32 23 25 30 27 27 23 19 14
32 32 32 35 37 37 34 30 31 30 31 33 34 33 35 39 37 35 31 28 23 22 22 23 25 16 15
35 33 32 33 36 37 36 33 30 30 31 30 30 32 35 42 45 35 35 28 26 25 26 25 27 24 19
32 30 30 32 34 36 36 35 34 31 31 31 31 31 28 29 37 34 26 23 20 21 19 21 21 20 18

GFSFLT2_500_spd_060.txt.gz
Wind_Speed
62 62 60 61 66 64 65 62 62 62 65 67 69 69 71 73 76 75 74 74 75 76 76 78 79 80 82
63 67 59 64 62 65 68 63 61 65 68 72 73 73 75 75 74 75 76 77 79 80 82 84 86 87 89
58 59 60 63 64 62 64 65 68 72 74 74 73 74 75 77 78 80 83 85 86 88 90 92 94 96 99
55 52 54 58 60 65 67 68 70 72 75 77 79 82 84 86 88 90 91 93 92 88 83 80 79 82 85
57 54 58 60 63 66 70 73 77 81 83 86 88 90 91 90 86 83 78 69 61 56 56 60 67 73 76
52 56 60 63 67 70 74 78 83 88 88 84 85 77 72 65 60 55 52 46 48 46 48 55 59 62 63
53 58 63 67 70 74 77 80 80 78 73 58 52 45 48 52 51 43 43 42 42 40 41 45 48 48 47
58 66 70 69 67 69 67 56 44 42 42 38 45 46 45 44 44 42 40 38 34 35 36 36 37 38 37
62 66 62 57 51 36 33 37 41 46 47 42 38 34 40 41 39 40 37 39 41 43 40 36 31 32 32
65 54 47 36 31 32 36 41 43 39 32 29 34 35 32 37 39 39 40 43 43 43 44 38 33 29 27
51 41 36 33 32 34 37 42 43 35 30 29 31 30 31 33 37 40 42 44 45 44 42 39 35 28 26
41 37 35 35 35 36 39 41 43 35 31 30 27 27 29 33 36 40 41 43 44 41 39 37 35 29 25
35 36 37 37 37 37 38 40 41 40 34 30 27 27 30 33 32 36 37 39 40 35 34 33 33 31 24
36 37 38 39 37 35 35 37 39 38 37 33 31 30 31 34 33 33 37 30 29 29 26 29 30 25 20
37 38 38 37 35 33 34 35 36 36 37 36 31 28 31 36 34 36 32 31 26 22 21 24 26 23 21
36 36 35 34 33 34 33 33 34 36 39 38 34 31 32 36 41 40 35 30 29 28 26 24 27 25 23
35 34 33 32 32 32 32 33 34 35 38 41 38 30 25 26 37 41 27 28 28 28 26 26 27 31 28

GFSFLT2_500_spd_063.txt.gz
Wind_Speed
60 60 60 62 62 66 67 67 67 64 62 60 63 59 59 61 65 68 70 74 76 77 78 79 80 80 79
61 59 67 65 60 56 59 61 60 63 63 61 62 63 67 69 71 73 75 77 78 78 79 80 80 82 83
54 56 55 57 59 60 58 56 56 58 61 63 65 67 71 73 75 78 82 84 85 86 87 87 88 89 90
58 58 60 59 52 47 50 53 56 61 64 67 70 74 78 80 83 86 89 91 91 89 85 81 77 73 70
54 53 43 44 47 51 55 59 64 68 70 72 74 79 83 84 86 87 83 76 69 62 53 48 46 48 52
43 40 44 47 51 54 59 60 63 68 66 70 71 65 62 58 57 54 49 44 42 39 37 40 41 44 49
40 44 49 53 56 59 65 63 60 57 52 45 48 50 52 52 51 48 43 37 36 36 36 37 37 41 43
45 48 53 55 58 61 61 54 47 45 43 44 50 47 44 42 38 38 37 34 32 34 34 35 39 43 46
49 52 53 55 58 56 48 43 41 42 42 46 47 38 37 39 40 38 33 30 33 35 37 40 41 44 46
50 51 54 56 53 45 41 41 42 42 40 43 43 35 31 38 38 35 34 35 37 39 40 41 44 44 41
53 55 58 52 45 41 41 42 43 42 39 38 40 36 34 33 35 36 35 38 40 40 40 41 42 38 32
55 55 49 43 41 41 41 42 41 39 38 37 38 36 33 32 32 35 36 38 38 37 41 40 37 31 23
54 49 43 41 41 42 42 39 38 37 37 37 38 38 37 34 31 33 33 36 40 38 33 33 30 25 20
53 45 43 41 40 41 39 37 35 36 37 36 37 37 38 39 36 33 34 32 33 32 25 28 27 25 25
45 43 40 37 39 39 37 35 34 34 35 37 37 37 38 40 36 35 32 32 29 25 23 25 30 25 26
40 37 34 34 37 37 35 34 33 34 36 38 37 37 37 39 42 38 35 33 30 28 27 25 31 34 28
33 30 31 34 36 35 35 35 35 35 36 38 37 37 34 35 36 42 35 31 27 30 30 29 28 34 32

GFSFLT2_500_spd_066.txt.gz
Wind_Speed
52 45 58 63 61 61 62 59 58 60 58 57 60 60 57 55 53 56 57 58 60 62 65 67 70 73 75
58 61 60 61 53 55 53 54 57 60 60 59 54 51 53 55 58 59 61 63 65 66 68 71 74 77 79
55 56 55 53 52 54 56 57 56 50 45 47 51 56 59 60 62 62 64 67 71 73 77 81 84 86 89
48 49 49 49 55 59 49 45 44 46 51 54 57 61 64 67 68 68 69 71 74 77 82 83 82 80 80
48 49 50 53 55 44 41 45 50 52 54 58 63 63 64 63 64 64 64 63 61 59 56 52 50 50 51
44 47 50 39 39 42 47 50 52 50 56 56 57 60 59 56 55 54 53 53 52 50 47 44 41 40 40
38 35 37 40 44 47 48 47 50 52 53 55 53 51 51 52 52 51 49 40 34 35 36 36 36 36 38
35 38 41 43 47 48 49 52 54 54 50 45 45 46 48 49 49 48 41 37 38 36 32 31 33 36 39
40 43 46 49 51 51 51 53 52 50 45 42 44 42 45 45 47 44 37 36 34 30 29 31 35 37 38
43 46 48 50 51 52 52 50 45 44 42 42 44 40 36 40 42 43 40 39 35 33 34 35 36 36 37
46 48 50 51 51 51 49 45 43 43 42 41 41 38 36 33 38 39 38 39 38 38 39 39 38 37 34
48 49 51 52 53 50 46 43 42 43 43 41 37 36 35 33 34 36 36 36 35 36 37 38 39 36 28
50 52 53 57 54 48 44 40 41 41 41 39 36 35 34 34 34 36 36 33 34 33 33 37 36 31 29
55 57 60 56 48 43 39 37 37 38 39 38 36 35 35 36 36 35 36 34 31 35 35 33 31 29 27
61 63 57 47 37 33 32 32 34 35 37 38 38 36 36 37 36 37 33 33 32 28 26 24 30 26 26
65 57 43 31 28 28 29 32 34 34 35 37 37 36 36 36 39 36 33 32 28 28 27 23 28 34 27
53 38 26 25 25 27 30 31 31 33 35 36 37 36 33 31 34 41 32 32 25 25 27 27 27 32 33

GFSFLT2_500_spd_069.txt.gz
Wind_Speed
54 48 41 43 39 42 43 50 56 58 53 49 50 54 55 55 52 51 53 51 51 53 53 55 58 60 60
30 48 58 54 49 48 51 53 53 52 52 53 54 47 40 43 45 47 48 50 52 54 56 60 62 64 64
52 41 43 49 54 55 51 47 46 47 50 49 41 41 45 49 51 52 54 56 60 62 60 62 65 68 72
40 42 48 45 47 47 47 48 48 41 38 41 45 49 52 52 52 54 56 57 59 61 63 65 67 69 72
34 36 38 40 42 43 43 37 36 40 44 47 49 49 51 53 54 55 55 57 59 60 59 58 58 61 63
29 32 34 39 39 35 34 38 42 44 47 48 51 53 54 55 54 54 55 56 56 54 52 52 48 45 46
28 28 29 32 35 37 40 44 46 48 52 52 54 54 55 54 53 52 52 50 48 49 48 44 44 44 44
27 30 33 36 40 43 46 48 49 50 52 54 53 53 52 51 49 49 48 45 44 45 44 41 40 40 37
34 36 39 41 43 45 47 49 50 50 50 50 50 47 48 49 49 49 45 43 42 42 41 35 36 35 36
39 41 42 43 44 46 48 50 52 52 51 50 49 47 44 48 48 46 43 41 40 40 40 36 34 35 38
42 42 43 45 47 49 51 53 55 54 51 48 47 44 41 40 44 43 42 41 39 38 40 37 35 35 35
41 43 45 47 50 54 57 57 54 51 49 44 42 40 38 38 38 40 39 39 38 36 38 37 34 33 33
44 47 48 52 57 61 60 54 48 46 42 39 36 36 36 37 37 39 37 37 36 35 37 36 34 36 35
46 50 52 57 64 63 51 41 36 35 33 32 32 34 35 37 37 37 37 34 33 33 33 34 35 32 28
48 52 54 60 58 46 32 28 26 27 29 31 34 33 34 35 35 36 34 33 31 30 31 31 37 33 25
50 52 54 53 41 28 21 20 23 26 29 31 33 33 33 34 36 35 35 32 30 29 30 28 29 33 27
51 50 50 40 29 21 21 23 25 25 27 28 29 29 27 27 31 37 32 32 30 29 29 28 26 29 30

GFSFLT2_500_spd_072.txt.gz
Wind_Speed
38 42 52 51 47 50 47 34 36 36 43 46 43 45 45 45 45 45 48 50 47 47 46 47 47 47 49
31 33 40 43 39 29 44 45 46 47 45 47 44 44 45 44 45 45 42 42 42 45 48 49 52 53 54
18 27 23 34 48 48 45 39 43 44 43 45 44 45 45 39 36 39 42 46 47 48 49 51 53 55 57
20 15 19 28 30 31 33 35 38 40 42 40 38 38 37 39 42 44 46 47 48 49 51 53 56 59 61
22 21 22 24 26 27 31 34 36 36 36 39 40 41 43 44 45 47 50 51 52 52 53 55 57 59 61
22 25 28 29 29 31 31 32 35 38 40 43 46 48 50 51 52 52 52 53 55 55 56 57 58 59 59
22 24 26 29 31 34 37 40 43 44 48 50 52 53 54 53 54 54 55 55 55 56 55 55 54 52 50
28 30 32 35 37 40 43 46 48 49 51 51 52 53 54 56 56 56 56 55 54 52 50 49 47 45 46
33 34 36 38 41 44 45 46 47 47 49 50 53 56 58 58 58 57 55 52 48 46 46 45 43 42 43
36 38 39 41 42 43 45 46 49 50 52 56 58 59 58 56 54 52 50 48 45 44 43 41 41 41 41
38 40 41 41 42 43 46 48 51 56 59 60 58 56 50 46 47 47 47 45 42 41 40 40 40 40 40
40 40 40 40 42 45 47 51 57 61 63 55 49 46 44 43 44 46 43 42 41 41 40 41 41 41 38
39 38 39 42 44 47 48 53 58 58 50 40 37 37 37 36 37 38 39 41 42 41 40 40 40 40 37
39 40 41 45 46 48 49 53 50 43 32 25 25 25 28 30 33 36 38 38 40 39 36 37 39 38 36
40 42 44 46 47 48 50 48 39 29 25 23 25 28 29 29 30 32 32 34 35 35 34 33 36 37 34
44 45 46 46 46 47 47 41 34 26 25 28 28 26 25 27 27 28 30 30 31 31 30 29 30 36 33
45 46 45 45 46 46 46 39 35 32 31 31 29 27 26 27 29 32 29 30 30 29 29 29 28 30 32

GFSFLT2_500_spd_075.txt.gz
Wind_Speed
42 36 36 34 30 25 37 38 44 30 37 33 33 32 32 36 37 35 36 37 40 42 43 43 47 48 47
37 29 33 20 23 15 21 29 30 41 41 35 41 47 48 36 35 36 38 40 42 43 42 42 44 46 47
29 30 25 22 17 12 21 25 32 37 32 33 32 31 33 36 35 36 38 37 38 41 42 45 46 47 48
30 27 25 20 18 18 19 21 23 25 27 30 32 33 34 33 34 36 37 39 42 44 46 48 48 49 51
31 29 29 26 24 22 23 24 26 27 28 31 32 35 37 39 40 40 43 46 47 49 50 50 52 54 55
26 26 27 27 27 28 29 31 32 32 35 38 39 42 44 46 47 49 50 50 50 50 51 52 54 54 55
28 29 29 30 30 31 34 36 39 41 44 46 47 48 49 50 51 51 51 51 52 54 55 55 55 56 56
30 31 32 33 34 36 38 40 41 43 45 46 47 48 50 51 52 53 54 55 56 56 55 55 55 55 54
33 34 35 36 37 38 40 41 42 43 46 48 48 50 53 56 59 61 61 59 57 54 51 50 50 48 47
36 36 37 38 40 41 41 41 42 44 46 48 50 52 57 61 62 60 56 52 48 46 45 45 45 44 44
38 39 39 40 41 41 40 40 42 44 47 48 51 55 59 56 50 48 44 43 42 42 42 42 40 39 41
40 40 40 40 41 41 40 42 44 46 49 48 52 51 48 37 33 36 35 34 35 35 34 35 38 40 39
41 42 41 42 43 44 45 46 46 46 47 47 47 41 30 24 23 27 29 32 34 35 36 37 38 39 37
44 44 44 44 44 44 45 44 45 46 47 47 42 36 28 25 27 31 32 30 35 35 33 35 37 39 38
47 47 47 46 45 45 44 44 45 46 47 47 41 36 32 30 30 31 29 29 29 29 30 30 33 36 36
49 48 48 47 46 45 44 44 45 47 47 47 43 38 34 34 33 32 32 31 30 29 29 28 28 33 32
49 49 50 50 48 46 44 44 45 47 47 46 45 40 38 37 37 38 37 35 32 31 31 30 28 30 30

GFSFLT2_500_spd_078.txt.gz
Wind_Speed
35 38 35 36 36 35 31 18 13 12 16 22 30 33 32 33 34 34 32 33 32 32 30 31 32 37 41
38 33 35 35 32 28 23 21 17 15 18 23 26 33 35 31 35 37 41 34 31 34 35 37 39 40 42
33 32 33 33 29 26 20 19 18 17 19 21 22 26 25 26 27 30 30 32 33 37 39 39 41 43 43
29 27 26 25 25 24 22 20 19 19 21 24 26 27 27 28 30 31 32 34 36 38 40 41 43 45 46
26 26 27 27 27 28 28 28 27 27 28 28 30 32 33 35 36 38 39 40 42 43 45 48 50 51 52
29 29 30 31 31 31 32 32 33 34 36 37 38 39 38 37 38 39 40 42 43 45 48 49 51 52 52
32 33 33 34 34 34 35 35 35 37 39 41 42 41 41 42 43 45 45 45 46 48 49 51 52 53 54
33 35 35 35 35 36 36 37 38 39 41 41 41 42 42 43 47 49 48 49 52 54 55 56 55 54 53
35 35 36 37 37 38 38 39 40 40 41 41 41 42 43 45 47 50 50 53 56 56 54 51 49 48 48
36 37 38 39 40 40 41 41 40 41 41 41 44 45 45 47 48 48 51 52 51 46 42 40 40 40 42
38 39 40 41 42 42 42 43 42 42 43 44 46 45 44 46 46 46 46 40 33 28 28 32 35 38 40
40 41 42 43 43 44 45 45 45 45 45 44 44 43 43 44 45 44 41 34 28 25 25 25 28 30 33
41 42 44 45 46 47 47 47 46 45 45 44 44 43 43 42 40 39 39 36 33 30 28 27 28 29 30
42 44 45 46 48 48 48 48 48 48 45 44 43 42 41 41 38 38 39 36 38 35 31 30 29 28 28
42 44 46 47 49 50 51 52 49 48 46 45 43 41 41 40 39 39 39 40 40 37 32 31 32 31 30
44 43 44 46 49 52 53 51 48 47 46 45 44 43 43 42 41 40 41 43 44 40 37 33 32 33 31
41 45 48 51 53 53 51 49 47 45 45 46 47 46 45 46 44 44 44 45 45 43 42 40 35 35 34

GFSFLT2_500_spd_081.txt.gz
Wind_Speed
37 35 35 35 33 34 33 31 26 23 18 18 16 18 23 25 23 26 24 25 29 30 30 33 27 27 33
33 32 32 31 30 28 26 24 23 22 21 18 18 18 20 22 23 23 23 28 30 34 34 36 33 32 33
30 28 26 26 25 25 26 25 24 23 22 23 23 23 22 24 24 25 26 28 29 30 32 34 35 39 42
29 28 27 27 27 27 28 29 29 29 28 28 28 27 28 29 29 30 31 32 33 34 35 36 38 40 41
28 28 29 29 29 30 32 33 32 32 32 32 33 34 34 33 34 35 35 36 37 38 39 43 44 45 46
30 30 31 31 32 33 34 34 33 34 34 35 36 37 37 39 39 38 36 34 34 35 37 40 43 46 49
32 31 31 32 32 33 33 34 34 36 36 37 38 38 39 40 41 42 41 42 43 42 43 44 45 46 48
33 34 34 34 34 34 34 35 36 37 38 39 40 40 41 41 42 43 44 45 45 45 47 47 49 52 54
33 33 34 35 35 35 36 37 38 39 39 41 42 43 44 44 45 46 46 45 44 45 46 47 47 46 46
34 34 35 35 36 36 38 38 39 41 42 44 45 46 45 45 46 46 45 44 44 44 44 41 38 35 33
34 35 35 36 37 38 40 41 42 43 44 45 46 45 46 46 46 45 45 44 43 41 38 36 33 30 29
35 35 36 37 38 39 41 42 42 41 43 46 48 48 47 46 47 46 44 42 41 37 35 34 33 32 31
36 37 37 38 40 41 38 38 42 45 46 47 49 49 46 45 45 46 43 41 39 37 35 34 35 34 33
37 38 39 41 39 36 41 44 48 49 49 49 49 46 44 42 43 44 41 41 41 40 37 36 35 36 35
38 40 41 37 37 41 44 47 50 51 51 49 46 44 40 40 40 42 44 44 43 43 41 38 40 39 40
41 42 37 39 43 45 47 48 51 52 52 50 45 41 40 41 43 45 46 47 46 46 45 41 44 44 43
44 38 39 42 45 46 50 51 54 54 53 50 45 41 41 44 46 48 49 50 51 50 49 49 46 46 46

GFSFLT2_500_spd_084.txt.gz
Wind_Speed
38 38 36 34 34 33 31 29 26 25 25 23 23 24 25 23 24 24 23 21 19 21 24 23 24 26 27
37 34 32 32 30 29 27 25 26 27 27 27 25 25 25 24 23 23 23 22 21 23 28 30 36 37 33
32 32 31 30 29 28 28 28 28 29 30 30 30 30 29 29 29 28 26 27 27 27 28 28 30 32 34
30 29 29 29 29 29 30 30 31 32 33 33 33 32 32 31 31 31 32 31 31 31 33 34 35 37 38
29 29 29 30 30 30 31 32 33 34 34 34 33 34 34 34 35 35 34 34 34 34 33 35 36 38 41
31 31 31 31 32 31 32 33 32 32 33 34 35 36 36 36 37 37 38 38 38 38 38 38 39 40 42
31 31 31 31 31 32 32 33 33 34 34 34 35 36 36 37 38 40 42 42 42 43 43 44 44 45 45
31 32 32 32 32 33 33 33 34 35 35 36 37 38 39 41 42 43 44 46 46 46 47 47 47 46 46
33 34 34 33 34 34 34 35 36 36 37 38 39 40 42 43 43 44 46 47 48 48 48 47 47 46 45
34 34 33 34 35 36 35 36 36 36 38 37 35 36 39 43 45 46 47 49 50 49 48 47 47 46 44
34 34 35 36 37 36 36 36 36 37 33 35 39 42 44 47 49 48 49 50 49 47 46 45 45 43 42
35 35 36 37 36 36 36 38 35 31 35 40 44 47 48 50 50 50 48 48 46 44 43 44 41 40 41
36 36 36 36 37 38 39 36 33 36 41 43 47 48 50 50 51 51 48 44 42 41 39 40 39 41 41
36 36 35 36 38 41 39 35 39 42 43 46 48 50 51 51 51 48 44 42 42 40 38 40 41 42 43
37 36 37 39 42 44 39 40 43 44 45 47 49 51 52 52 49 45 43 43 43 44 44 44 45 46 45
38 38 40 42 45 45 41 44 45 46 48 49 50 51 51 51 47 44 45 46 47 49 49 49 49 51 50
41 41 42 44 47 46 44 45 47 48 49 50 52 52 52 50 46 47 49 50 51 53 55 55 54 55 56

GFSFLT2_500_spd_087.txt.gz
Wind_Speed
36 36 37 37 37 33 32 30 28 26 25 25 26 27 28 28 29 27 24 24 25 22 20 20 23 22 21
34 35 35 35 33 31 29 28 28 28 27 28 29 29 30 32 30 30 28 26 25 26 25 23 23 25 26
34 34 34 32 31 29 28 27 28 29 29 30 31 31 32 33 32 31 29 29 28 27 27 29 29 28 29
32 33 32 30 29 28 28 28 28 29 29 30 32 32 33 33 33 33 32 32 32 31 30 29 31 33 34
32 31 30 31 30 30 29 29 30 30 31 31 31 33 33 33 34 34 34 34 34 34 35 35 34 33 34
31 33 31 30 30 30 30 30 30 33 32 32 33 34 34 34 34 33 34 35 36 38 39 39 40 40 39
31 30 30 30 31 31 31 32 33 33 33 33 34 34 34 34 34 34 36 37 39 40 41 43 45 45 46
30 30 30 31 32 32 32 32 33 34 34 34 35 34 34 34 33 31 33 36 40 43 44 45 45 47 48
29 30 31 32 32 32 32 33 34 33 34 34 34 35 31 29 32 35 38 41 44 46 47 48 47 48 50
29 31 31 31 32 33 33 34 34 34 34 36 36 30 30 33 36 39 41 44 46 47 48 49 49 51 50
31 31 31 32 32 33 34 33 33 34 37 38 33 32 34 38 42 43 45 46 47 48 49 51 52 47 43
32 31 32 33 33 35 35 33 34 37 39 39 35 37 40 41 44 45 46 47 48 49 52 50 45 42 41
33 34 34 34 35 36 35 35 37 40 43 40 39 42 44 45 46 48 49 50 50 50 49 44 42 40 40
36 36 36 35 36 37 38 39 40 42 44 42 43 45 45 47 48 50 52 51 52 50 46 41 41 41 42
37 37 38 39 39 41 41 42 42 43 45 45 45 46 46 46 49 52 54 53 51 49 45 43 44 45 46
39 39 39 40 42 44 43 43 44 45 47 48 46 45 45 48 51 53 54 53 53 49 46 44 48 52 53
41 41 42 43 45 45 44 45 46 47 49 48 46 47 47 48 53 55 55 53 53 50 48 50 51 53 51

GFSFLT2_500_spd_090.txt.gz
Wind_Speed
32 31 34 36 36 35 33 31 29 27 27 26 25 26 26 27 28 28 28 27 27 25 25 26 24 21 19
31 33 35 34 34 33 32 30 29 28 27 27 27 27 28 28 29 29 28 28 27 26 25 26 26 25 24
32 33 33 31 31 31 29 28 28 28 28 28 28 28 29 30 30 30 30 30 30 29 28 27 26 26 26
32 30 30 29 29 29 29 29 29 28 27 28 28 29 30 31 30 30 31 31 31 30 29 28 27 27 28
28 28 28 28 29 28 28 27 27 27 27 29 29 30 30 30 30 30 30 31 31 31 31 31 32 33 33
27 27 27 28 28 27 27 28 28 29 29 30 29 29 29 29 30 31 32 32 32 31 29 29 30 34 36
26 27 27 27 28 27 27 28 29 29 29 29 30 30 30 31 31 32 33 30 25 27 28 30 31 35 40
27 27 27 28 28 27 27 29 30 30 30 30 30 31 31 31 34 33 27 27 30 30 31 34 37 40 41
27 27 28 29 28 27 28 29 29 30 30 31 31 31 32 34 34 28 28 31 32 34 37 39 41 43 43
27 29 29 29 28 28 30 30 31 31 30 31 31 32 35 36 33 32 33 35 37 40 42 43 43 44 45
29 29 30 30 29 30 31 31 31 32 32 32 33 35 36 39 36 37 39 40 42 43 45 45 46 46 47
30 31 32 32 32 33 33 32 33 33 34 35 36 37 37 38 39 41 43 44 43 44 46 47 48 48 48
31 33 34 34 34 34 35 35 35 36 37 38 40 40 39 39 40 43 45 43 43 45 46 48 50 49 49
34 35 36 36 36 37 37 37 38 38 40 41 42 42 41 42 42 43 42 43 45 46 48 50 50 48 47
37 37 39 39 39 39 39 39 40 42 43 43 43 42 43 44 44 42 43 46 47 48 50 50 48 48 48
39 40 40 40 39 40 41 41 43 44 44 44 42 41 43 46 44 45 46 46 48 50 47 45 48 50 47
41 41 40 37 38 41 43 45 45 45 45 44 41 41 44 46 46 45 46 50 49 48 45 45 47 48 46

GFSFLT2_500_spd_093.txt.gz
Wind_Speed
40 37 35 32 30 30 29 29 30 29 27 25 24 24 25 25 24 24 25 26 26 26 25 25 23 23 23
38 36 36 32 29 28 28 27 28 26 24 24 25 25 26 25 25 26 26 27 27 26 26 26 25 23 23
36 34 32 28 30 27 27 25 26 26 25 25 25 25 25 25 26 26 26 26 26 26 26 25 25 25 24
33 30 27 30 28 26 25 25 24 25 25 25 24 25 26 26 26 26 26 26 27 27 27 27 26 25 24
34 29 30 26 26 26 25 24 24 25 25 25 26 26 26 27 27 26 26 27 28 28 28 28 26 24 22
27 28 27 26 26 24 24 25 25 25 25 25 26 27 27 27 26 26 28 28 30 31 30 27 23 23 20
28 26 26 26 24 24 25 26 26 26 25 25 26 28 27 26 28 28 28 30 32 31 27 27 28 27 28
26 26 25 25 24 24 26 28 27 26 26 26 28 28 28 28 28 28 30 31 32 30 30 31 33 32 32
26 25 25 25 25 26 28 28 27 27 28 29 29 29 30 30 29 31 32 33 33 34 34 35 36 39 40
25 25 25 26 26 28 28 28 28 29 29 31 31 31 31 32 33 35 35 34 34 37 39 41 42 42 43
26 25 26 26 27 29 30 30 30 31 32 32 32 32 33 34 36 38 38 36 33 35 41 44 43 42 42
26 27 27 27 28 30 32 32 31 32 33 34 34 34 35 37 39 40 39 37 35 37 39 41 41 42 44
26 27 28 29 30 31 31 32 33 35 35 36 36 36 37 39 41 42 41 40 40 40 39 40 42 44 47
27 29 31 31 32 33 35 35 36 37 37 38 38 40 41 41 42 43 41 40 40 40 41 42 44 45 49
32 33 34 34 35 37 38 38 39 37 38 39 41 42 42 42 42 41 40 41 40 41 40 43 46 48 48
34 35 36 36 38 39 39 38 36 37 39 41 42 42 42 42 40 41 41 41 40 40 43 45 49 47 46
34 36 37 37 36 36 36 36 36 37 39 40 41 41 40 40 41 42 41 40 40 43 45 46 45 47 44

GFSFLT2_500_spd_096.txt.gz
Wind_Speed
39 39 39 39 39 35 34 31 29 28 28 26 24 22 21 22 22 21 22 22 22 23 23 22 22 21 21
40 40 41 41 37 33 32 28 27 27 26 25 24 24 24 22 22 21 22 22 23 23 23 23 23 23 23
43 43 39 36 32 32 27 26 27 27 25 25 24 25 24 23 23 24 24 24 23 23 23 23 23 24 24
41 39 35 33 32 29 28 27 28 24 25 24 25 25 24 25 25 24 25 25 24 23 23 24 25 25 26
34 32 35 32 30 30 27 26 26 25 23 25 24 24 25 25 25 25 25 24 24 24 24 25 27 28 28
38 38 35 34 28 28 25 25 26 25 24 26 24 24 24 24 25 25 24 25 26 26 26 28 28 29 27
34 34 36 28 27 26 25 26 26 25 25 25 25 24 23 25 26 25 26 26 26 27 28 29 30 29 30
38 31 29 29 27 24 26 26 26 25 26 25 26 25 25 26 28 27 28 28 28 30 31 33 33 33 33
30 31 29 26 23 25 26 27 25 25 26 26 27 26 28 28 29 29 29 30 31 34 35 36 35 36 38
32 29 23 22 24 25 25 24 24 25 27 28 28 29 29 30 30 31 31 32 34 36 38 38 37 35 38
29 23 23 26 25 24 25 24 25 27 28 30 30 31 31 31 31 33 34 34 36 37 39 39 37 35 36
25 24 26 25 25 27 25 25 27 28 29 30 32 32 33 34 34 35 35 37 39 39 40 40 39 39 39
25 26 26 27 28 27 28 30 30 30 31 33 33 34 35 35 35 36 37 38 39 40 41 41 40 41 41
27 28 28 29 30 30 32 32 33 34 34 35 35 36 35 35 37 38 39 39 40 40 40 40 41 43 41
26 28 29 30 32 33 34 35 36 37 37 37 35 33 34 37 39 39 40 40 38 37 40 42 42 40 41
30 30 31 32 33 35 36 37 38 36 34 33 33 34 36 37 38 39 38 37 38 39 39 40 40 43 45
34 35 35 35 35 36 35 34 34 34 33 33 34 36 37 38 36 38 41 38 37 37 38 40 44 46 47

GFSFLT2_500_spd_099.txt.gz
Wind_Speed
43 42 39 41 41 39 39 37 34 35 33 27 22 27 23 23 22 22 21 21 20 21 22 23 22 22 20
45 44 44 44 42 40 39 35 35 32 28 23 23 25 24 24 23 23 22 20 21 22 23 23 22 21 21
47 47 48 45 43 39 36 34 31 30 25 25 26 24 24 22 23 22 22 21 22 22 21 22 21 20 21
45 43 42 37 37 35 32 32 32 28 27 26 25 24 23 22 22 22 21 21 21 21 21 20 21 21 21
40 37 36 33 30 32 34 33 29 31 26 26 27 23 24 23 22 22 21 21 21 20 20 21 22 23 24
35 35 35 32 34 35 34 32 30 26 27 28 26 24 24 23 22 21 21 21 21 21 22 22 23 25 26
36 36 34 36 33 33 32 34 26 27 27 27 26 24 24 24 23 22 23 23 24 24 23 24 26 27 29
43 39 37 34 36 34 32 28 30 26 25 26 25 24 24 25 23 24 25 26 27 26 26 27 28 30 31
42 38 37 39 38 31 32 29 23 24 25 25 24 24 25 25 25 26 26 27 28 28 28 29 31 33 34
41 42 41 39 31 33 27 23 25 26 25 24 24 26 26 26 28 29 29 29 29 30 30 31 32 35 36
34 32 30 30 32 28 23 25 25 26 26 24 26 27 27 28 29 30 30 31 31 32 32 33 36 37 39
27 30 31 33 30 25 25 26 26 27 26 27 28 28 28 29 30 31 32 32 32 32 33 36 38 38 39
32 33 35 34 29 26 28 27 28 31 29 31 31 30 31 31 31 31 33 32 33 34 36 38 38 38 37
33 36 37 31 26 29 28 29 32 32 32 33 34 34 34 34 33 32 31 32 35 36 38 37 36 37 38
32 29 27 27 29 30 30 33 34 34 35 34 36 36 35 34 33 31 31 33 35 35 36 35 38 37 37
25 27 29 30 31 33 35 35 35 37 36 36 37 34 32 33 32 32 33 35 34 34 36 36 36 37 38
29 30 31 32 34 37 38 38 38 37 35 34 34 32 32 33 32 34 35 34 34 35 34 36 39 41 42

GFSFLT2_500_spd_102.txt.gz
Wind_Speed
45 45 45 43 42 43 41 41 41 37 35 31 30 28 26 22 23 22 22 21 18 18 18 17 19 19 19
48 48 46 44 44 45 42 44 39 35 33 29 28 26 24 23 23 22 22 19 18 18 19 18 18 17 17
45 44 42 42 41 40 40 37 37 32 30 31 27 25 24 24 22 22 19 19 18 18 18 18 17 16 15
44 43 41 39 38 39 37 34 32 30 29 30 25 26 26 24 22 21 20 19 20 19 18 17 17 17 18
42 42 41 37 36 35 32 30 27 28 30 28 27 26 23 24 22 21 21 20 19 18 18 18 18 18 19
39 39 39 35 35 33 32 31 31 31 29 31 32 25 25 24 22 21 21 21 20 19 18 19 20 20 20
40 37 35 40 37 36 35 30 29 29 33 34 23 28 22 23 22 22 23 22 21 20 20 20 22 22 22
37 38 37 39 41 38 30 33 31 34 35 29 28 24 22 22 23 23 24 24 23 22 22 23 24 25 25
35 37 35 32 36 39 36 36 39 37 30 26 24 22 23 23 23 23 24 25 25 24 24 26 27 27 27
26 27 25 28 32 36 36 39 34 27 26 25 23 25 24 22 23 24 25 26 27 26 26 28 29 29 30
22 25 29 28 29 28 32 28 26 29 26 24 26 26 24 22 25 26 26 27 28 28 29 29 30 31 31
22 21 21 24 27 27 28 29 32 28 25 25 26 27 25 25 26 26 26 26 27 29 31 31 30 30 32
21 22 24 26 27 28 30 34 30 27 27 27 27 29 26 27 29 30 30 30 31 32 32 30 30 32 33
23 24 25 25 27 29 33 32 30 29 29 30 30 30 29 29 31 32 33 33 33 31 29 30 31 32 32
22 23 23 23 24 29 31 32 30 30 33 32 33 33 33 35 35 34 33 33 31 30 30 31 32 32 31
23 23 22 24 27 30 29 29 32 34 34 35 35 35 36 37 35 34 33 32 30 30 31 33 33 32 30
23 24 25 25 25 27 30 31 31 32 34 35 36 37 36 34 32 33 34 32 31 32 32 33 33 31 30

GFSFLT2_500_spd_105.txt.gz
Wind_Speed
48 47 50 51 52 49 47 46 43 41 39 36 37 31 27 27 27 25 23 22 20 19 18 17 17 17 18
45 44 44 45 45 41 41 39 39 37 35 33 31 30 30 29 26 25 23 23 20 20 18 17 18 18 17
41 40 40 40 40 40 40 39 36 35 34 34 33 28 27 28 27 24 23 22 22 20 20 19 18 17 18
41 40 40 39 39 39 39 37 34 34 33 31 30 30 29 28 28 25 23 22 22 20 21 20 19 18 18
39 38 37 36 37 36 36 34 32 31 30 28 27 27 27 26 30 22 23 22 23 22 21 21 20 19 18
39 39 38 37 36 34 32 33 33 30 33 32 31 28 30 29 21 24 23 23 23 23 22 21 20 19 19
40 39 38 37 35 33 32 31 35 38 36 26 20 26 28 30 28 28 22 23 23 23 23 22 22 21 21
36 36 35 34 34 34 35 33 36 35 30 24 26 31 31 30 28 25 23 23 23 23 23 24 23 23 23
31 28 27 26 24 25 25 28 29 33 31 30 32 33 32 27 27 24 24 22 22 23 24 25 25 26 25
30 29 27 30 24 21 23 21 25 30 34 32 27 27 29 28 26 25 24 23 23 23 24 25 26 27 27
29 28 26 26 22 22 22 23 25 26 27 25 25 25 25 26 26 26 25 23 24 25 25 26 27 28 29
27 27 26 25 21 19 20 22 23 24 26 25 24 24 24 26 27 28 25 25 25 24 25 26 28 30 30
26 26 23 25 23 23 22 22 23 24 25 28 27 26 27 26 27 29 26 25 26 27 28 28 30 31 31
26 24 24 25 25 25 24 22 21 21 27 31 30 29 30 30 28 28 29 29 29 31 32 32 32 31 29
25 25 24 23 24 24 23 21 21 21 27 31 32 32 33 33 32 31 32 32 33 35 34 33 32 30 30
26 24 25 25 26 24 23 21 22 24 27 31 33 34 35 36 35 34 35 35 35 35 33 32 32 29 30
23 23 24 24 24 24 23 24 26 27 28 30 31 32 32 33 33 33 37 37 34 32 32 32 33 30 31

GFSFLT2_500_spd_108.txt.gz
Wind_Speed
48 47 49 51 50 47 46 44 45 45 44 38 37 37 37 35 36 31 26 27 26 25 23 21 22 22 23
43 42 41 42 42 40 39 38 36 36 34 34 33 32 32 33 27 25 28 28 27 25 22 21 24 23 22
36 37 38 38 39 39 39 38 39 38 36 34 34 34 32 32 33 29 28 27 26 24 23 23 26 24 23
39 40 41 39 39 38 38 37 37 37 35 33 33 33 33 33 31 30 29 27 26 25 23 25 26 25 25
39 40 40 40 38 38 38 38 37 36 34 32 32 32 30 30 30 29 28 30 31 26 25 26 26 26 25
40 41 41 41 41 41 40 38 36 33 31 32 30 29 30 30 29 29 33 32 27 28 25 26 27 26 25
42 41 38 37 38 38 38 36 35 32 31 31 31 37 34 36 36 31 30 27 29 30 27 26 27 28 27
40 39 35 35 33 32 30 31 31 31 31 29 32 37 33 24 25 24 29 32 32 30 28 26 28 28 29
38 36 34 32 32 31 26 28 26 24 25 26 26 32 29 26 27 28 31 30 32 29 28 27 27 28 29
35 33 33 31 30 28 29 29 25 23 22 21 19 20 30 26 25 26 28 31 30 28 28 27 27 28 29
34 32 30 30 29 29 28 25 28 24 22 21 20 19 19 20 24 28 30 30 29 29 27 26 27 30 31
35 34 32 30 30 28 28 28 26 23 23 23 21 18 19 23 26 25 26 28 29 29 26 25 26 27 29
36 34 30 29 28 26 26 28 27 25 25 23 21 21 24 27 27 26 25 27 29 30 28 26 27 27 28
31 29 29 28 27 26 26 28 29 27 26 23 21 21 25 30 30 28 27 27 29 31 31 29 30 32 32
29 28 28 27 27 27 27 28 28 28 26 25 23 23 26 33 32 32 33 34 34 33 34 35 34 34 35
27 25 25 26 26 27 29 29 28 26 26 25 23 24 27 32 34 35 36 36 36 36 37 37 36 35 36
29 26 25 26 26 25 25 26 26 27 27 25 24 26 28 32 34 34 35 36 37 37 38 40 39 37 35

GFSFLT2_500_spd_111.txt.gz
Wind_Speed
47 46 44 39 36 36 37 38 38 39 38 35 33 33 32 32 31 30 33 33 32 29 29 22 23 20 30
37 39 38 36 36 36 37 38 38 38 36 35 36 34 33 33 32 31 31 27 29 22 26 22 25 27 29
36 37 36 35 36 37 38 38 38 37 36 35 35 34 33 32 32 32 31 31 24 27 29 23 26 29 30
35 36 37 37 39 40 40 40 40 39 39 37 36 33 32 31 30 31 31 30 28 34 27 26 27 28 28
36 36 38 39 41 40 40 41 40 41 40 38 35 33 30 29 29 29 29 29 29 23 23 25 28 29 29
37 39 40 39 39 39 39 38 39 39 38 36 33 31 30 30 29 30 29 29 29 30 31 33 30 30 28
39 40 40 41 40 37 36 38 37 34 31 30 31 31 31 29 27 31 37 31 32 34 34 35 33 28 30
41 41 40 39 38 37 35 36 35 31 28 28 28 29 26 25 26 28 30 31 27 31 34 32 30 31 30
38 39 39 38 36 36 34 34 33 30 29 29 26 25 23 21 23 28 28 27 25 25 30 28 32 31 30
40 41 40 37 35 35 34 34 32 30 30 28 26 22 21 22 19 22 24 20 25 27 25 28 34 32 31
39 39 38 37 35 35 35 35 33 33 29 28 29 28 24 21 20 19 20 20 21 22 25 29 31 30 30
36 37 38 38 38 37 36 35 33 30 30 29 28 26 23 20 20 20 20 20 20 23 26 27 28 29 28
35 36 36 35 34 33 32 32 31 29 29 27 27 26 24 24 24 22 22 22 23 22 23 25 26 28 26
33 33 32 31 31 32 31 30 29 29 29 29 28 27 26 26 26 25 24 25 26 25 25 24 27 29 29
32 33 31 30 30 30 29 28 29 29 29 29 28 28 27 28 27 26 27 29 29 28 28 27 29 30 32
32 31 30 30 29 28 25 25 27 29 30 29 28 28 28 28 28 27 29 31 30 31 32 33 34 35 35
33 32 32 31 30 29 26 25 25 25 24 24 24 25 25 27 28 28 28 31 34 35 36 35 37 39 40

GFSFLT2_500_spd_114.txt.gz
Wind_Speed
46 47 45 40 37 38 36 34 34 34 35 35 35 33 32 32 31 30 30 30 26 24 27 28 24 29 27
47 46 38 35 36 37 37 37 37 37 38 37 35 34 32 32 31 29 28 28 30 28 21 26 31 27 25
49 43 38 36 37 37 37 38 39 39 38 37 36 36 35 33 32 29 27 27 26 27 24 22 23 26 29
45 41 37 37 37 37 36 37 38 39 37 35 36 36 34 31 29 27 25 24 24 24 25 22 29 33 34
42 38 39 38 38 37 36 37 38 38 37 35 36 35 31 28 27 25 25 23 23 23 25 25 31 31 30
38 38 39 39 40 39 39 37 37 36 36 35 34 32 26 26 26 25 25 26 22 25 27 28 20 29 36
38 38 40 40 41 41 39 37 37 35 35 34 32 28 25 24 25 26 25 24 22 24 31 35 33 34 33
39 40 42 40 38 37 38 39 35 33 33 34 30 26 25 24 22 22 22 22 21 22 28 35 37 30 30
40 39 39 40 40 39 39 38 36 33 32 32 29 26 26 22 21 22 22 21 17 18 19 21 25 31 33
42 42 42 40 37 37 37 35 34 33 33 31 30 27 24 24 24 24 23 19 15 17 20 22 22 24 28
40 36 33 33 32 33 34 34 34 34 33 32 30 26 24 26 26 25 25 24 21 23 26 22 20 22 25
34 32 32 32 32 34 33 32 31 30 30 29 27 25 24 25 25 25 26 24 22 22 22 22 22 24 24
35 34 33 32 31 31 31 30 28 28 28 26 24 24 23 24 23 24 24 24 24 23 23 24 22 21 23
32 32 31 29 29 29 28 28 28 28 27 26 25 25 25 26 25 25 26 27 27 25 23 23 23 22 23
31 31 29 29 30 29 29 28 27 26 26 25 26 26 26 26 27 27 27 28 27 27 26 25 25 26 26
31 30 29 29 29 29 28 27 25 25 25 25 25 24 25 25 25 27 28 29 30 28 28 29 29 27 28
30 31 31 31 33 32 31 30 29 29 27 25 24 23 22 22 22 24 26 27 28 30 31 31 32 31 32

GFSFLT2_500_spd_117.txt.gz
Wind_Speed
41 42 41 43 45 46 46 41 37 38 38 41 38 36 36 33 33 32 29 30 27 25 24 22 20 24 28
44 44 43 45 48 48 44 40 38 39 41 41 39 37 37 35 34 31 31 28 26 23 23 21 22 21 23
46 48 47 48 49 47 41 38 39 40 42 40 40 39 37 34 34 31 27 25 23 22 21 20 20 19 26
48 49 49 49 49 44 41 39 39 41 41 42 41 39 36 34 33 29 25 23 20 19 20 20 19 17 27
48 48 49 49 44 42 42 40 40 41 43 42 40 39 37 34 31 26 23 22 19 17 19 20 20 22 24
49 47 47 46 44 43 42 43 44 43 41 38 37 37 35 33 28 24 23 21 19 20 20 18 16 19 15
45 44 46 45 45 44 45 44 43 41 38 36 37 37 33 31 27 23 22 21 19 18 20 18 24 26 23
44 45 44 45 46 46 45 45 42 40 38 36 36 34 32 29 26 24 21 20 20 19 21 21 21 28 37
44 44 45 45 46 45 47 46 43 38 33 33 33 32 31 28 25 23 21 20 19 21 21 22 23 24 36
47 48 47 47 45 46 45 39 34 32 31 32 32 32 29 27 25 24 22 23 22 21 21 23 22 21 24
48 46 43 44 43 39 35 32 31 31 32 31 30 28 25 23 23 23 22 23 23 23 23 22 24 23 24
42 42 43 39 36 36 35 33 32 32 31 29 28 25 22 20 21 22 22 23 23 23 23 26 26 27 27
38 37 37 37 36 34 32 31 30 29 28 27 26 25 21 20 20 21 21 23 23 23 22 25 27 29 28
35 35 35 35 33 31 31 30 29 28 27 26 25 24 22 22 22 23 23 24 24 24 24 27 27 27 27
34 34 34 33 32 32 30 29 28 27 26 25 24 22 23 23 23 24 24 26 27 27 27 29 30 29 27
33 32 31 32 32 32 30 30 29 27 27 26 24 22 22 23 23 25 26 26 26 28 28 29 31 30 29
33 34 34 33 31 32 31 30 29 29 29 29 27 26 25 22 22 22 24 24 24 26 28 29 31 32 32